RYR35MN EGSS-LIPX

Flight info

Callsign RYR35MN
Flight time N/A
Altitude 37000
Route CLN M84 KONAN UL607 SPI DCT ARCKY DCT LIRSU DCT KRH DCT BATUB M738 LORLO Q49 MOVOR T897 ANJAT
Aircraft B738/M-SDE3FGIJ1LRWY/SB1

Departure

Time N/A
Airport London Stansted Airport (EGSS)

Arrival

Time 2026-04-25 08:06
Airport Verona Villafranca Valerio Catullo Airport (LIPX)
Time Latitude Longitude Altitude Speed Heading
2026-04-25 07:30 48.35787 9.22822 37109 ft 443 kts 149°
2026-04-25 07:30 48.30649 9.27948 37116 ft 443 kts 149°
2026-04-25 07:31 48.25530 9.33043 37106 ft 444 kts 150°
2026-04-25 07:31 48.20379 9.38156 37111 ft 443 kts 150°
2026-04-25 07:32 48.15239 9.43248 37104 ft 443 kts 150°
2026-04-25 07:32 48.10092 9.48333 37115 ft 443 kts 150°
2026-04-25 07:33 48.04948 9.53405 37121 ft 443 kts 150°
2026-04-25 07:33 47.99812 9.58523 37115 ft 444 kts 148°
2026-04-25 07:34 47.94836 9.63914 37121 ft 445 kts 147°
2026-04-25 07:34 47.89846 9.69392 37120 ft 446 kts 147°
2026-04-25 07:35 47.84832 9.74831 37114 ft 446 kts 148°
2026-04-25 07:35 47.79800 9.80243 37122 ft 446 kts 148°
2026-04-25 07:36 47.75962 9.84354 36753 ft 446 kts 145°
2026-04-25 07:36 47.73483 9.87007 36863 ft 433 kts 144°
2026-04-25 07:36 47.71064 9.89589 36901 ft 425 kts 144°
2026-04-25 07:37 47.66282 9.94698 36996 ft 423 kts 144°
2026-04-25 07:37 47.61495 9.99798 37001 ft 425 kts 144°
2026-04-25 07:38 47.56679 10.04914 37005 ft 427 kts 144°
2026-04-25 07:38 47.51831 10.10053 37001 ft 430 kts 144°
2026-04-25 07:39 47.46992 10.15173 37006 ft 433 kts 144°
2026-04-25 07:39 47.42026 10.20255 37007 ft 436 kts 148°
2026-04-25 07:40 47.36834 10.24912 37000 ft 438 kts 149°
2026-04-25 07:40 47.31673 10.29572 36993 ft 438 kts 148°
2026-04-25 07:41 47.26472 10.34269 37011 ft 439 kts 148°
2026-04-25 07:41 47.21262 10.38949 36993 ft 439 kts 148°
2026-04-25 07:42 47.16046 10.43629 37000 ft 439 kts 148°
2026-04-25 07:42 47.10839 10.48294 37007 ft 438 kts 148°
2026-04-25 07:43 47.05582 10.52827 36941 ft 440 kts 154°
2026-04-25 07:43 47.02709 10.54436 36674 ft 444 kts 163°
2026-04-25 07:43 46.99754 10.55722 36439 ft 442 kts 163°
2026-04-25 07:44 46.96826 10.56966 36188 ft 435 kts 163°
2026-04-25 07:44 46.93942 10.58215 35934 ft 431 kts 163°
2026-04-25 07:44 46.91071 10.59491 35686 ft 432 kts 163°
2026-04-25 07:44 46.88187 10.60791 35438 ft 437 kts 163°
2026-04-25 07:45 46.85260 10.62113 35204 ft 444 kts 163°
2026-04-25 07:45 46.82300 10.63448 34967 ft 445 kts 163°
2026-04-25 07:45 46.79338 10.64781 34702 ft 446 kts 163°
2026-04-25 07:45 46.76370 10.66114 34467 ft 447 kts 163°
2026-04-25 07:46 46.73395 10.67441 34221 ft 447 kts 164°
2026-04-25 07:46 46.70360 10.68413 33962 ft 447 kts 172°
2026-04-25 07:46 46.67273 10.68945 33503 ft 446 kts 174°
2026-04-25 07:46 46.64187 10.69397 32922 ft 445 kts 174°
2026-04-25 07:47 46.61101 10.69833 32266 ft 445 kts 174°
2026-04-25 07:47 46.58013 10.70280 31587 ft 446 kts 174°
2026-04-25 07:47 46.54922 10.70747 30883 ft 448 kts 174°
2026-04-25 07:47 46.51820 10.71230 30195 ft 449 kts 174°
2026-04-25 07:48 46.48716 10.71725 29465 ft 449 kts 174°
2026-04-25 07:48 46.45601 10.72226 28673 ft 451 kts 173°
2026-04-25 07:48 46.42477 10.72731 27875 ft 453 kts 173°
2026-04-25 07:48 46.39342 10.73237 27039 ft 454 kts 173°
2026-04-25 07:49 46.36199 10.73744 26272 ft 454 kts 173°
2026-04-25 07:49 46.33085 10.74245 25661 ft 449 kts 173°
2026-04-25 07:49 46.29996 10.74741 25041 ft 444 kts 173°
2026-04-25 07:49 46.26946 10.75230 24409 ft 439 kts 173°
2026-04-25 07:50 46.23921 10.75715 23794 ft 435 kts 174°
2026-04-25 07:50 46.20928 10.76193 23197 ft 431 kts 174°
2026-04-25 07:50 46.17963 10.76667 22598 ft 426 kts 174°
2026-04-25 07:50 46.15036 10.77134 21999 ft 421 kts 174°
2026-04-25 07:51 46.12175 10.77590 21409 ft 417 kts 174°
2026-04-25 07:51 46.09267 10.78053 20797 ft 413 kts 174°
2026-04-25 07:51 46.06421 10.78505 20228 ft 409 kts 174°
2026-04-25 07:51 46.03607 10.78952 19651 ft 405 kts 174°
2026-04-25 07:52 46.00821 10.79395 19070 ft 401 kts 174°
2026-04-25 07:52 45.98057 10.79833 18498 ft 398 kts 174°
2026-04-25 07:52 45.95315 10.80267 17936 ft 394 kts 174°
2026-04-25 07:52 45.92641 10.80691 17377 ft 390 kts 174°
2026-04-25 07:53 45.89954 10.81116 16816 ft 387 kts 174°
2026-04-25 07:53 45.87291 10.81536 16257 ft 384 kts 174°
2026-04-25 07:53 45.84647 10.81954 15709 ft 380 kts 174°
2026-04-25 07:53 45.82032 10.82357 15162 ft 376 kts 175°
2026-04-25 07:54 45.79437 10.82486 14708 ft 370 kts 180°
2026-04-25 07:54 45.76875 10.82390 14222 ft 366 kts 182°
2026-04-25 07:54 45.74371 10.82254 14056 ft 353 kts 182°
2026-04-25 07:54 45.71964 10.82148 13997 ft 338 kts 181°
2026-04-25 07:55 45.69664 10.82074 13982 ft 324 kts 181°
2026-04-25 07:55 45.67460 10.82015 13981 ft 310 kts 181°
2026-04-25 07:55 45.65339 10.81954 13852 ft 301 kts 182°
2026-04-25 07:55 45.63279 10.81528 13565 ft 299 kts 194°
2026-04-25 07:56 45.61282 10.80762 13285 ft 296 kts 195°
2026-04-25 07:56 45.59303 10.79986 12993 ft 294 kts 195°
2026-04-25 07:56 45.57334 10.79227 12668 ft 293 kts 195°
2026-04-25 07:56 45.55368 10.78482 12354 ft 292 kts 195°
2026-04-25 07:57 45.53414 10.77749 12049 ft 290 kts 194°
2026-04-25 07:57 45.51462 10.77019 11744 ft 289 kts 194°
2026-04-25 07:57 45.49526 10.76292 11436 ft 287 kts 195°
2026-04-25 07:57 45.47594 10.75565 11130 ft 286 kts 195°
2026-04-25 07:58 45.45674 10.74843 10826 ft 285 kts 195°
2026-04-25 07:58 45.43764 10.74126 10528 ft 284 kts 195°
2026-04-25 07:58 45.42500 10.73652 10324 ft 283 kts 194°
2026-04-25 07:58 45.40613 10.72888 10014 ft 282 kts 202°
2026-04-25 07:59 45.39031 10.71295 9690 ft 280 kts 225°
2026-04-25 07:59 45.37669 10.69330 9412 ft 278 kts 225°
2026-04-25 07:59 45.36312 10.67399 9036 ft 274 kts 224°
2026-04-25 07:59 45.34495 10.64895 8327 ft 275 kts 224°
2026-04-25 08:00 45.33567 10.63624 8004 ft 273 kts 224°
2026-04-25 08:00 45.32204 10.61765 7540 ft 271 kts 224°
2026-04-25 08:00 45.30841 10.59928 7072 ft 269 kts 220°
2026-04-25 08:00 45.29208 10.58690 6558 ft 268 kts 192°
2026-04-25 08:01 45.27372 10.58705 6090 ft 265 kts 164°
2026-04-25 08:01 45.25779 10.59948 5619 ft 263 kts 135°
2026-04-25 08:01 45.24844 10.62086 5320 ft 251 kts 106°
2026-04-25 08:01 45.24778 10.64468 4991 ft 238 kts 78°
2026-04-25 08:02 45.25176 10.66704 4629 ft 230 kts 74°
2026-04-25 08:02 45.25740 10.68764 4243 ft 221 kts 54°
2026-04-25 08:02 45.26823 10.70234 3892 ft 211 kts 41°
2026-04-25 08:02 45.27853 10.71684 3500 ft 206 kts 46°
2026-04-25 08:03 45.28832 10.73149 3067 ft 204 kts 46°
2026-04-25 08:03 45.29801 10.74578 2757 ft 197 kts 46°
2026-04-25 08:03 45.30749 10.75964 2487 ft 194 kts 46°
2026-04-25 08:03 45.31682 10.77327 2228 ft 191 kts 46°
2026-04-25 08:04 45.32599 10.78668 1977 ft 188 kts 46°
2026-04-25 08:04 45.33504 10.79991 1728 ft 185 kts 46°
2026-04-25 08:04 45.34377 10.81266 1483 ft 174 kts 46°
2026-04-25 08:04 45.35180 10.82440 1282 ft 158 kts 46°
2026-04-25 08:05 45.35918 10.83517 1052 ft 149 kts 45°
2026-04-25 08:05 45.36642 10.84571 856 ft 149 kts 46°
2026-04-25 08:05 45.37363 10.85626 682 ft 148 kts 45°
2026-04-25 08:05 45.38074 10.86662 483 ft 148 kts 46°
2026-04-25 08:06 45.38780 10.87701 296 ft 143 kts 46°
2026-04-25 08:06 45.39413 10.88626 238 ft 106 kts 45°
2026-04-25 08:06 45.39853 10.89264 239 ft 83 kts 45°
2026-04-25 08:06 45.40175 10.89738 238 ft 38 kts 45°
2026-04-25 08:07 45.40282 10.89953 237 ft 24 kts 75°
2026-04-25 08:07 45.40313 10.90129 238 ft 14 kts 75°
2026-04-25 08:07 45.40331 10.90236 236 ft 9 kts 83°
2026-04-25 08:07 45.40309 10.90310 238 ft 8 kts 134°
2026-04-25 08:08 45.40268 10.90369 237 ft 8 kts 134°
2026-04-25 08:08 45.40274 10.90440 239 ft 8 kts 49°
2026-04-25 08:08 45.40311 10.90497 238 ft 8 kts 46°
2026-04-25 08:08 45.40348 10.90553 237 ft 8 kts 45°
2026-04-25 08:09 45.40352 10.90609 239 ft 3 kts 135°
2026-04-25 08:09 45.40337 10.90630 238 ft 1 kts 135°
2026-04-25 08:09 45.40333 10.90636 236 ft 1 kts 135°
2026-04-25 08:09 45.40330 10.90639 236 ft 0 kts 135°